Location: Battersea Observatory
(44.4318°N, 76.3841°W)
Time: 18:43:11
(UTC-04:00)

S-56A Canister/Altair - Visible Passes

Search period start: 27 May 2022 00:00
Search period end: 06 June 2022 00:00
Orbit: 634 x 2499 km, 38.9° (Epoch: 26 May)

Date Brightness Start Highest point End Pass type
(mag) Time Alt. Az. Time Alt. Az. Time Alt. Az.
27 May 10.0 00:07:45 10° W 00:21:07 42° SW 00:25:22 34° S visible
27 May 10.9 02:18:15 10° W 02:22:45 14° WSW 02:22:45 14° WSW visible
27 May 10.1 21:27:26 10° W 21:42:14 68° S 21:55:53 10° ESE visible
27 May 10.1 23:34:03 10° W 23:47:54 46° SSW 23:53:48 31° SSE visible
28 May 10.7 01:43:23 10° W 01:51:10 18° SW 01:51:10 18° SW visible
28 May 10.1 20:54:06 10° W 21:08:40 70° S 21:22:48 10° ESE visible
28 May 10.1 23:00:25 10° W 23:14:36 50° SSW 23:22:16 27° SSE visible
29 May 10.6 01:08:56 10° W 01:18:29 22° SW 01:19:38 21° SW visible
29 May 10.1 22:26:52 10° W 22:41:14 54° SSW 22:50:47 21° SE visible
30 May 10.5 00:34:46 10° W 00:45:32 25° SW 00:48:10 24° SSW visible
30 May 10.2 21:53:26 10° W 22:07:48 57° SSW 22:19:20 16° SE visible
31 May 10.5 00:00:46 10° W 00:12:29 29° SW 00:16:43 25° SSW visible
31 May 10.2 21:20:03 10° W 21:34:19 60° SSW 21:47:55 11° SE visible
31 May 10.5 23:26:57 10° W 23:39:21 33° SW 23:45:19 24° S visible
01 Jun 10.5 22:53:15 10° W 23:06:08 36° SW 23:13:58 22° S visible
02 Jun 11.2 01:06:21 10° WSW 01:09:24 11° WSW 01:11:21 11° SW visible
02 Jun 10.5 22:19:42 10° W 22:32:51 40° SW 22:42:39 18° SSE visible
03 Jun 11.1 00:30:14 10° W 00:36:30 14° SW 00:40:03 13° SW visible
03 Jun 10.5 21:46:15 10° W 21:59:30 43° SSW 22:11:23 13° SSE visible
03 Jun 11.0 23:55:24 10° W 00:03:31 17° SW 00:08:47 14° SSW visible
04 Jun 10.5 21:12:56 10° W 21:26:07 46° SSW 21:39:42 10° SE visible
04 Jun 11.0 23:21:04 10° W 23:30:29 20° SW 23:37:35 13° SSW visible
05 Jun 11.1 22:47:04 10° W 22:57:22 23° SW 23:06:25 12° S visible
